THORAD DELTA 1 DEB, 8399

Orbit data source: Space-Track

THORAD DELTA 1 DEB, 8399 is space debris in SSO originally from a launch on Fri, 15 Nov 1974 UTC launched from the Air Force Western Test Range (AFWTR). Debris objects in space refer to the collection of defunct objects orbiting the Earth. Examples of debris include non-operational satellites, rocket bodies, and fragments generated from explosions, collisions, or faulty payload assembly.

Loading next visibility...
Identifier
8399, 1974-089CB
Orbit
SSO
Country
Flag of USUS
Related business
Manufacturer
Unknown
Mission
Spacecraft
Bus & Motor
Unknown
Mass
Unknown
Launch date (UTC)
1974-11-15 (52 years ago)
Launch vehicle
Unknown
Launch site
Air Force Western Test Range (AFWTR)
Object type
Payload
Rocket body
Debris
Shape & HBR
Unknown shape, 0.2 m
Radar Cross Section
Medium (>0.1 m² and <1 m²)

Expand to show TLE details & history
Last TLE update: 1 week ago

TLE from 1 week ago
0 THORAD DELTA 1 DEB
1 08399U 74089CB  26152.42495498  .00000029  00000-0  52874-3 0  9998
2 08399 101.7479 129.9296 0156233 348.5577 166.4417 12.38897104333176
Epoch: 2026-06-01T10:11Z
TLE epoch observation values (Epoch: 2026-06-01T10:11:56.110Z)
Latitude
24.06409°
Longitude
-87.66361°
Altitude
1,633.825 km
Speed
7.003 km/s
True Right ascension
21h 00m 55s
True Declination
23° 57' 01"
Sunlit
Object was in daylight at epoch
Visualization orbit readout
Latitude
Unknown
Longitude
Unknown
Altitude
Unknown
Speed
Unknown
Apparent Right ascension
Unknown
Apparent Declination
Unknown
Sunlit
N/A
Visualization observer readout
Local Sidereal Time
19:27:11
Azimuth
Unknown
Elevation
Unknown
Doppler factor
Unknown
Orbital elements
Apogee altitude
1,632.063 km
Perigee altitude
1,385.622 km
Semi-major axis
7,886.979 km
Eccentricity
0.01562
Inclination
101.7479°
RAAN
129.9296°
Arg. of periapsis
348.5577°
True anomaly
166.85358°
Mean anomaly
166.4417°
Eccentric anomaly
166.64841°
Mean motion
3.09868 °/min
Orbital period
116.18 mins
BSTAR
0.00052874
Loading maneuver chart data...
Computing Atmospheric mass density...

Documentation

Showing up to 5 results
|